Weather History for Clarksburg, WV

Change the Weather History Date:

Thursday, February 7, 2013

  Actual Average Record
Temperature  
Mean Temperature 34 °F -  
Max Temperature 48 °F 38 °F 66 °F (1938)
Min Temperature 21 °F 21 °F 0 °F (1962)
Degree Days  
Heating Degree Days 30    
Moisture  
Dew Point 26 °F    
Average Humidity 76    
Maximum Humidity 96    
Minimum Humidity 46    
Precipitation  
Precipitation 0.00 in - - ()
Sea Level Pressure  
Sea Level Pressure 30.17 in    
Wind  
Wind Speed 2 mph (East)    
Max Wind Speed 9 mph    
Max Gust Speed -    
Visibility 6 miles    
Events Fog    
Averages and records for this station are not official NWS values.
T = Trace of Precipitation, MM = Missing Value Source: NWS Daily Summary

Daily Weather History Graph

Daily Weather History Graph

Search for Another Location

Airport:

Trip Planner

Search our weather history database for the weather conditions in past years. The results will help you decide how hot, cold, wet, or windy it might be!

Date:

Astronomy

Feb. 07, 2013 Rise Set
Actual Time 7:21 AM EST 5:48 PM EST
Civil Twilight 6:53 AM EST 6:16 PM EST
Nautical Twilight 6:22 AM EST 6:48 PM EST
Astronomical Twilight 5:50 AM EST 7:19 PM EST
Moon 4:59 AM EST (2/7) 3:12 PM EST (2/7)
Length of Visible Light 11h 22m
Length of Day
10h 27m
Waning Crescent, 9% of the Moon is Illuminated
Feb 7
Waning Crescent
Feb 10
New
Feb 17
First Quarter
Feb 25
Full
Mar 4
Last Quarter

Hourly Weather History & Observations

Time (EST) Temp. Windchill Dew Point Humidity Pressure Visibility Wind Dir Wind Speed Gust Speed Precip Events Conditions
12:01 AM 24.8 °F - 23.0 °F 93% 30.26 in 3.0 mi Calm Calm - N/A   Clear
12:07 AM 24.8 °F - 21.2 °F 86% 30.26 in 1.8 mi Calm Calm - N/A   Clear
12:15 AM 23.0 °F - 21.2 °F 93% 30.27 in 0.5 mi Calm Calm - N/A Fog Light Freezing Fog
12:40 AM 23.0 °F - 21.2 °F 93% 30.27 in 1.2 mi Calm Calm - N/A   Partly Cloudy
12:50 AM 21.2 °F - 19.4 °F 93% 30.26 in 0.8 mi Calm Calm - N/A   Clear
12:53 AM 21.9 °F - 21.0 °F 96% 30.29 in 1.2 mi Calm Calm - N/A   Clear
1:12 AM 24.8 °F - 23.0 °F 93% 30.26 in 3.0 mi Calm Calm - N/A   Clear
1:53 AM 24.1 °F - 21.9 °F 91% 30.27 in 3.0 mi Calm Calm - N/A   Clear
2:02 AM 24.8 °F - 23.0 °F 93% 30.24 in 2.5 mi Calm Calm - N/A   Clear
2:11 AM 24.8 °F 20.5 °F 21.2 °F 86% 30.24 in 3.0 mi North 3.5 mph - N/A   Clear
2:53 AM 25.0 °F - 21.9 °F 88% 30.25 in 5.0 mi Calm Calm - N/A   Clear
3:53 AM 25.0 °F - 23.0 °F 92% 30.23 in 5.0 mi Calm Calm - N/A   Clear
4:53 AM 26.1 °F 21.9 °F 23.0 °F 88% 30.23 in 6.0 mi North 3.5 mph - N/A   Clear
5:53 AM 26.1 °F - 24.1 °F 92% 30.25 in 6.0 mi Calm Calm - N/A   Clear
6:53 AM 28.0 °F 20.0 °F 24.1 °F 85% 30.26 in 7.0 mi NNE 8.1 mph - N/A   Partly Cloudy
7:53 AM 28.0 °F 22.8 °F 25.0 °F 88% 30.27 in 5.0 mi NNE 4.6 mph - N/A   Mostly Cloudy
8:53 AM 28.9 °F - 25.0 °F 85% 30.26 in 5.0 mi Calm Calm - N/A   Overcast
9:53 AM 30.9 °F - 27.0 °F 85% 30.25 in 6.0 mi Calm Calm - N/A   Overcast
10:53 AM 37.0 °F 33.3 °F 27.0 °F 67% 30.21 in 10.0 mi ESE 4.6 mph - N/A   Overcast
11:53 AM 39.9 °F - 28.0 °F 63% 30.18 in 10.0 mi Calm Calm - N/A   Scattered Clouds
12:53 PM 44.1 °F 42.5 °F 28.0 °F 53% 30.14 in 10.0 mi SE 3.5 mph - N/A   Overcast
1:53 PM 46.0 °F - 28.0 °F 50% 30.09 in 10.0 mi Calm Calm - N/A   Mostly Cloudy
2:53 PM 45.0 °F 43.5 °F 28.0 °F 52% 30.07 in 10.0 mi NE 3.5 mph - N/A   Overcast
3:53 PM 48.0 °F - 28.0 °F 46% 30.06 in 10.0 mi East 3.5 mph - N/A   Overcast
4:53 PM 46.9 °F - 28.0 °F 48% 30.04 in 10.0 mi East 5.8 mph - N/A   Clear
5:53 PM 45.0 °F 42.6 °F 28.9 °F 53% 30.04 in 10.0 mi East 4.6 mph - N/A   Scattered Clouds
6:53 PM 46.0 °F 42.5 °F 30.0 °F 54% 30.04 in 10.0 mi ESE 6.9 mph - N/A   Clear
7:53 PM 45.0 °F 40.1 °F 30.0 °F 56% 30.03 in 10.0 mi SE 9.2 mph - N/A   Clear
8:53 PM 42.1 °F 38.4 °F 30.9 °F 65% 30.02 in 10.0 mi ESE 5.8 mph - N/A   Clear
9:53 PM 42.1 °F 39.2 °F 30.9 °F 65% 30.01 in 10.0 mi ESE 4.6 mph - N/A   Clear
10:53 PM 43.0 °F 39.5 °F 32.0 °F 65% 29.98 in 10.0 mi ESE 5.8 mph - N/A   Clear
11:53 PM 42.1 °F 39.2 °F 33.1 °F 70% 29.96 in 10.0 mi ESE 4.6 mph - N/A   Clear